Vienna, OH

6:25 PM EST on December 08, 2016 (GMT -0500)
Youngstown-Warren Regional

Weather History for KYNG - December, 2012

Change the Weather History Date:

Thursday, December 20, 2012

  Actual Average Record
Temperature  
Mean Temperature 38 °F 29 °F  
Max Temperature 45 °F 35 °F 61 °F (1939)
Min Temperature 30 °F 23 °F -5 °F (1963)
Degree Days  
Heating Degree Days 27 36  
Month to date heating degree days 473 663  
Since 1 July heating degree days 1854 1992  
Cooling Degree Days 0 0  
Month to date cooling degree days 0 0  
Year to date cooling degree days 761 544  
Moisture  
Dew Point 35 °F    
Average Humidity 81    
Maximum Humidity 100    
Minimum Humidity 62    
Precipitation  
Precipitation 0.53 in 0.10 in 1.16 in (1973)
Month to date precipitation 3.24 1.97  
Year to date precipitation 43.14 37.89  
Snow  
Snow T in 0.50 in - ()
Month to date snowfall 0.3 9.4  
Since 1 July snowfall 3.2 13.8  
Snow Depth 0.00 in    
Sea Level Pressure  
Sea Level Pressure 29.64 in    
Wind  
Wind Speed 15 mph (SE)    
Max Wind Speed 29 mph    
Max Gust Speed 38 mph    
Visibility 7 miles    
Events Rain    
T = Trace of Precipitation, MM = Missing Value Source: NWS Daily Summary

Daily Weather History Graph

Daily Weather History Graph

Search for Another Location

Airport or City:

Trip Planner

Search our weather history database for the weather conditions in past years. The results will help you decide how hot, cold, wet, or windy it might be!

Date:

Astronomy

Dec. 20, 2012 Rise Set
Actual Time 7:44 AM EST 4:56 PM EST
Civil Twilight 7:13 AM EST 5:27 PM EST
Nautical Twilight 6:38 AM EST 6:02 PM EST
Astronomical Twilight 6:04 AM EST 6:36 PM EST
Moon 12:16 PM EST (12/20) 12:26 AM EST (12/20)
Length of Visible Light 10h 14m
Length of Day
9h 11m
First Quarter, 55% of the Moon is Illuminated
Dec 20
First Quarter
Dec 28
Full
Jan 4
Last Quarter
Jan 11
New
Jan 18
First Quarter

Hourly Weather History & Observations

Time (EST) Temp. Windchill Dew Point Humidity Pressure Visibility Wind Dir Wind Speed Gust Speed Precip Events Conditions
12:38 AM 30.2 °F 25.4 °F 28.4 °F 93% 30.11 in 3.0 mi East 4.6 mph - N/A   Mostly Cloudy
12:51 AM 30.2 °F 23.4 °F 28.4 °F 93% 30.10 in 3.0 mi East 6.9 mph - N/A   Overcast
1:51 AM 33.1 °F 26.9 °F 30.9 °F 92% 30.12 in 4.0 mi East 6.9 mph - N/A   Overcast
2:51 AM 34.0 °F 26.0 °F 32.0 °F 92% 30.09 in 3.0 mi ESE 10.4 mph - N/A   Overcast
3:51 AM 34.0 °F 26.0 °F 30.9 °F 89% 30.07 in 4.0 mi ESE 10.4 mph - N/A   Overcast
4:51 AM 34.0 °F 25.0 °F 30.9 °F 89% 30.04 in 7.0 mi ESE 12.7 mph - N/A   Overcast
5:51 AM 35.1 °F 26.4 °F 30.0 °F 82% 29.99 in 10.0 mi East 12.7 mph 19.6 mph N/A   Overcast
6:51 AM 36.0 °F 25.6 °F 30.0 °F 79% 29.93 in 10.0 mi ESE 18.4 mph - N/A   Overcast
7:51 AM 37.0 °F 27.7 °F 30.0 °F 76% 29.89 in 10.0 mi ESE 16.1 mph 23.0 mph N/A   Overcast
8:51 AM 37.0 °F 28.1 °F 30.0 °F 76% 29.84 in 10.0 mi ESE 15.0 mph 26.5 mph N/A   Overcast
9:51 AM 37.9 °F 29.6 °F 30.9 °F 76% 29.83 in 10.0 mi ESE 13.8 mph - N/A   Overcast
10:51 AM 39.9 °F 30.8 °F 30.9 °F 70% 29.77 in 10.0 mi ESE 18.4 mph 29.9 mph N/A   Overcast
11:51 AM 42.1 °F 33.9 °F 30.9 °F 65% 29.74 in 10.0 mi SE 17.3 mph 27.6 mph N/A   Overcast
12:51 PM 42.1 °F 34.2 °F 30.9 °F 65% 29.71 in 10.0 mi SE 16.1 mph 24.2 mph 0.00 in Rain Light Rain
1:51 PM 42.1 °F 34.9 °F 35.1 °F 76% 29.65 in 10.0 mi ESE 13.8 mph 25.3 mph 0.01 in Rain Light Rain
2:40 PM 41.0 °F 32.8 °F 35.6 °F 81% 29.58 in 2.0 mi ESE 16.1 mph 24.2 mph 0.04 in Rain Rain
2:51 PM 41.0 °F 32.8 °F 37.4 °F 87% 29.57 in 2.5 mi SE 16.1 mph 26.5 mph N/A Rain Light Rain
3:25 PM 39.2 °F 29.8 °F 37.4 °F 93% 29.53 in 2.5 mi ESE 18.4 mph 27.6 mph 0.07 in Rain Rain
3:51 PM 39.9 °F 31.4 °F 37.9 °F 93% 29.55 in 2.5 mi SE 16.1 mph 29.9 mph 0.12 in Rain Rain
4:25 PM 39.2 °F 28.7 °F 37.4 °F 93% 29.46 in 3.0 mi ESE 23.0 mph 31.1 mph 0.07 in Rain Light Rain
4:51 PM 39.9 °F 29.5 °F 37.9 °F 93% 29.45 in 6.0 mi SE 24.2 mph 33.4 mph 0.08 in Rain Light Rain
5:51 PM 42.1 °F 33.9 °F 39.0 °F 89% 29.42 in 10.0 mi SE 17.3 mph 32.2 mph 0.01 in   Overcast
6:22 PM 42.8 °F 34.5 °F 39.2 °F 87% 29.38 in 10.0 mi SE 18.4 mph 31.1 mph N/A   Overcast
6:51 PM 44.1 °F 36.5 °F 39.9 °F 85% 29.40 in 9.0 mi SSE 17.3 mph 27.6 mph N/A   Overcast
7:19 PM 44.6 °F 37.8 °F 41.0 °F 87% 29.37 in 2.0 mi SSE 15.0 mph 25.3 mph 0.01 in Rain Light Rain
7:51 PM 43.0 °F 36.0 °F 41.0 °F 93% 29.39 in 2.5 mi SSE 13.8 mph - 0.06 in Rain Light Rain
8:11 PM 44.6 °F 37.2 °F 41.0 °F 87% 29.35 in 4.0 mi SSE 17.3 mph 25.3 mph 0.02 in Rain Light Rain
8:51 PM 44.1 °F 37.4 °F 41.0 °F 89% 29.35 in 10.0 mi SSE 13.8 mph 23.0 mph 0.02 in   Overcast
9:51 PM 44.1 °F 38.1 °F 41.0 °F 89% 29.32 in 8.0 mi SSE 11.5 mph 20.7 mph 0.00 in Rain Light Rain
10:23 PM 44.6 °F 39.2 °F 42.8 °F 93% 29.33 in 1.5 mi West 10.4 mph - 0.06 in Rain Heavy Rain
10:28 PM 42.8 °F 33.8 °F 39.2 °F 87% 29.32 in 1.5 mi WSW 21.9 mph 34.5 mph 0.09 in Rain Heavy Ice Pellets
10:43 PM 41.0 °F 31.9 °F 37.4 °F 87% 29.33 in 6.0 mi WSW 19.6 mph 27.6 mph 0.17 in Rain Light Rain
10:51 PM 41.0 °F 30.2 °F 35.1 °F 79% 29.37 in 10.0 mi WSW 27.6 mph 36.8 mph 0.17 in Rain Light Rain
11:13 PM 39.2 °F 30.2 °F 32.0 °F 75% 29.35 in 10.0 mi SW 17.3 mph 25.3 mph 0.00 in   Overcast
11:35 PM 39.2 °F 30.5 °F 30.2 °F 70% 29.34 in 10.0 mi SW 16.1 mph 35.7 mph 0.00 in   Overcast
11:51 PM 39.0 °F 29.9 °F 30.0 °F 70% 29.37 in 10.0 mi SW 17.3 mph 25.3 mph 0.00 in   Overcast